Regional Weather Roundup
Issued by NWS

Home | Current Version | Previous Version | Graphics & Text | Print | Product List | Glossary On
Versions: 1 2 3 4 5 6 7 8 9 10 11 12 13 14 15 16 17 18 19 20 21 22 23 24 25 26 27 28 29 30 31 32 33 34 35 36 37 38 39 40 41 42 43 44 45 46 47 48 49 50
000
ASUS45 KBOI 190410
RWRID

IDAHO REGIONAL WEATHER ROUNDUP
NATIONAL WEATHER SERVICE BOISE ID
1000 PM MDT FRI AUG 18 2017

NOTE: "FAIR" INDICATES FEW OR NO CLOUDS BELOW 12000 FEET
WITH NO SIGNIFICANT WEATHER AND/OR OBSTRUCTIONS TO VISIBILITY

IDZ012-014-190500-
SOUTHWEST IDAHO


CITY           SKY/WX    TMP DP  RH WIND       PRES   REMARKS
BOISE          FAIR      77  30  17 CALM      29.97S
CALDWELL       FAIR      76  42  29 SW3       29.95R
MOUNTAIN HOME  FAIR      76  31  19 NW6       29.99R
$$

IDZ016-017-190500-
SOUTHCENTRAL IDAHO


CITY           SKY/WX    TMP DP  RH WIND       PRES   REMARKS
BURLEY         FAIR      63  45  51 S6        30.05R
JEROME         FAIR      72  37  28 S6        30.06R
TWIN FALLS     FAIR      73  32  22 SW9       30.07R
$$

IDZ019>023-190500-
SOUTHEAST IDAHO


CITY           SKY/WX    TMP DP  RH WIND       PRES   REMARKS
IDAHO FALLS    FAIR      73  32  22 S10       30.09R
POCATELLO      FAIR      66  31  27 S10       30.09R
REXBURG        FAIR      70  31  23 S9        30.09S
$$

IDZ006-010-011-018-031-032-190500-
CENTRAL IDAHO MOUNTAINS


CITY           SKY/WX    TMP DP  RH WIND       PRES   REMARKS
MCCALL         FAIR      67  30  25 N3        30.11R
HAILEY         CLEAR     64  37  36 CALM      30.13R
STANLEY          N/A     57  28  33 S5        30.24R
SALMON         CLOUDY    72  36  26 SE3       30.01R
CHALLIS        CLOUDY    69  35  28 E3        30.07R
$$

IDZ002-004-006-007-026-190500-
NORTHERN IDAHO


CITY           SKY/WX    TMP DP  RH WIND       PRES   REMARKS
LEWISTON       FAIR      84  37  18 NW12G22   29.93R
LOWELL           N/A     69  49  48 CALM      29.94R
COEUR D`ALENE  FAIR      73  41  31 S7        29.95R
MULLAN PASS    FAIR      58  30  34 VRB6      30.15S
$$



USA.gov is the U.S. government's official web portal to all federal, state and local government web resources and services.